Location: Ballingbuur
(53.0000°N, 5.7667°E)
Time: 06:02:40
(UTC+00:00)

SL-24 DEB - Pass Details

Date: 29 November 2020
Orbit: 664 x 701 km, 92.0° (Epoch: 23 January)

Event Time Altitude Azimuth Distance (km) Brightness Sun altitude
Rises 05:37:52 0° 174° (S) 3,066 7.9 -15.2°
Reaches altitude 10° 05:40:07 10° 175° (S) 2,157 7.1 -14.9°
Maximum altitude 05:44:53 87° 263° (W) 710 4.3 -14.2°
Drops below altitude 10° 05:49:44 10° 355° (N) 2,181 6.6 -13.5°
Sets 05:52:01 0° 356° (N) 3,103 7.4 -13.2°
